GFSFLT1_925_thetae_090.txt.gz
Theta_e
323 329 331 331 331 331 330 330 328 328 328 326 325 323 323 323 324 327 329 329 328 326 326 325 320 312 314 318 316 315 316 319
325 328 329 331 331 331 330 329 327 326 324 323 322 320 321 322 322 324 327 328 327 326 325 323 319 314 316 318 317 317 319 319
326 328 327 330 330 330 329 327 326 325 323 322 321 321 319 320 320 321 324 327 326 326 325 324 319 315 317 319 318 318 318 319
327 327 326 328 328 328 327 326 325 324 323 322 321 319 318 317 317 320 322 324 326 325 323 321 320 317 318 319 319 318 318 318
327 327 325 327 327 327 326 326 325 323 322 321 320 318 317 316 317 319 320 322 323 323 321 320 319 318 318 317 318 318 318 317
327 327 326 326 326 325 325 325 324 323 322 321 319 317 318 317 316 318 319 320 320 319 319 320 319 320 318 317 317 317 317 316
327 327 326 324 325 324 324 324 323 322 321 320 319 317 317 316 316 317 318 318 319 320 320 318 320 318 317 316 316 316 317 316
328 327 325 324 323 323 323 323 322 322 321 320 319 319 317 316 316 316 316 316 317 319 321 320 319 319 318 317 317 315 315 315
329 327 325 324 323 323 323 322 322 322 321 320 319 319 318 316 316 316 317 316 316 318 319 318 316 317 317 317 315 314 314 314
329 328 326 325 323 322 322 322 322 322 322 320 320 319 318 316 315 315 316 316 315 316 315 315 315 315 316 315 315 313 314 314
330 329 327 326 323 322 322 322 321 322 322 321 320 319 319 317 316 315 314 315 316 315 315 314 314 314 314 316 315 315 315 314
329 329 328 326 324 322 322 321 321 321 322 322 321 320 318 318 317 315 313 314 314 314 314 315 316 317 315 315 317 318 318 318
325 328 327 326 324 322 321 321 321 321 322 322 321 320 319 317 316 316 314 313 313 314 314 314 315 317 317 317 317 317 317 318
322 325 326 326 324 323 322 322 321 321 321 322 322 322 321 319 317 317 316 314 313 313 313 313 314 315 315 316 316 316 316 317
319 318 323 325 326 325 323 323 322 322 321 321 321 321 322 321 320 319 317 316 315 314 313 313 313 313 314 314 315 315 315 316
322 321 320 320 321 322 326 324 323 323 322 321 321 321 321 322 322 321 320 318 317 316 314 314 313 313 313 314 314 315 315 315
322 321 319 318 318 319 320 324 324 323 323 322 322 321 321 321 321 322 322 321 320 318 316 315 314 314 314 314 314 314 314 314
320 317 315 313 313 316 316 317 319 324 324 323 323 323 322 321 321 321 322 322 322 322 320 317 316 316 315 315 314 313 313 313
312 310 308 307 308 310 310 310 312 315 317 318 319 322 323 323 322 321 321 321 321 322 322 321 320 319 318 317 316 315 313 313

GFSFLT1_925_thetae_093.txt.gz
Theta_e
319 327 329 330 331 330 329 328 329 330 329 328 328 327 327 328 328 329 328 328 328 327 326 325 325 322 320 319 317 316 318 319
318 328 329 330 329 329 329 328 329 328 326 325 323 325 324 323 323 324 327 328 328 327 326 325 324 319 319 317 315 315 317 319
321 328 327 329 329 328 328 327 326 328 325 324 322 322 321 321 322 322 322 324 327 327 326 325 324 317 315 316 314 316 317 319
325 327 327 329 328 328 327 326 326 326 324 323 321 320 319 320 320 320 320 324 326 326 326 324 322 315 314 317 315 316 317 318
325 326 326 328 328 327 327 326 324 324 324 322 321 319 316 317 318 318 319 321 324 325 325 324 321 317 315 318 316 316 318 317
325 326 326 328 327 326 325 324 323 324 323 322 321 319 317 318 317 317 320 322 323 324 324 323 322 316 316 317 317 317 318 317
323 325 326 327 326 325 324 323 322 323 322 321 321 319 318 317 317 318 320 320 321 323 323 320 318 315 317 317 317 318 318 318
322 325 325 325 324 324 323 323 321 322 321 320 320 320 318 317 317 318 318 320 319 319 319 319 316 313 317 319 318 317 318 317
324 326 324 324 324 323 323 322 321 320 320 320 320 319 319 316 317 317 318 319 320 319 319 318 317 316 317 318 317 316 316 316
325 326 324 324 323 323 322 322 321 320 319 320 319 319 319 317 317 318 318 318 319 320 319 318 318 317 319 317 316 316 317 315
326 326 324 324 323 323 322 322 321 320 319 319 319 319 319 319 318 316 317 317 317 319 319 319 318 318 320 318 318 317 316 316
327 326 324 323 323 322 322 321 321 321 320 319 319 319 318 319 318 317 316 317 317 317 318 319 318 317 316 316 317 318 316 315
327 327 325 323 322 321 321 321 321 321 321 319 319 319 319 317 317 317 317 315 316 316 316 316 315 314 314 314 315 316 316 315
326 326 325 323 321 321 321 321 320 320 321 320 319 319 319 318 318 317 316 315 314 315 315 315 315 315 315 315 315 315 315 316
321 322 324 324 323 323 322 322 321 321 320 321 320 320 320 319 319 318 317 316 314 313 313 314 314 314 315 315 316 316 316 315
320 320 319 319 319 320 322 323 322 322 321 320 321 321 321 320 319 319 318 317 316 314 313 312 313 313 313 314 315 315 315 315
315 314 313 313 315 313 314 316 319 322 322 321 320 320 321 321 321 320 319 318 318 317 316 314 313 312 313 313 313 313 314 314
310 309 307 307 309 308 308 310 312 318 321 321 321 321 321 321 320 321 321 320 319 318 317 316 315 315 314 313 313 313 313 313
305 304 302 301 304 306 306 306 307 307 307 308 308 311 315 319 321 321 320 320 321 320 320 318 316 316 315 315 314 314 312 313

GFSFLT1_925_thetae_096.txt.gz
Theta_e
311 321 327 328 330 330 330 329 329 330 330 330 329 329 329 329 329 329 327 329 328 325 326 326 324 325 322 320 318 318 319 319
310 313 321 327 329 329 329 328 329 329 328 328 327 326 326 328 329 329 328 327 328 327 326 326 325 324 322 320 317 317 317 318
310 314 325 327 327 328 328 327 327 327 326 325 323 322 324 326 326 325 327 327 326 327 326 326 325 323 319 319 316 316 317 317
313 322 325 327 327 327 328 326 326 327 325 323 321 319 321 321 320 321 322 322 323 327 327 325 324 324 319 318 316 317 317 318
312 322 325 327 327 327 327 326 325 325 323 321 321 319 318 319 320 320 320 320 321 323 324 325 324 324 321 319 316 316 317 318
317 323 325 327 328 328 327 326 325 324 322 323 321 319 318 317 318 318 318 319 320 325 324 325 323 323 318 317 315 315 316 318
317 323 325 327 327 326 325 325 324 322 322 323 322 320 317 317 317 317 318 319 320 323 323 323 322 323 319 316 314 314 316 317
313 323 325 326 326 325 324 323 323 321 321 323 322 320 319 318 316 317 319 319 319 321 322 323 321 320 319 316 316 315 317 318
310 321 324 325 326 325 324 322 322 321 321 322 321 320 319 318 316 317 319 319 320 320 321 322 321 319 317 316 315 312 316 317
312 319 324 324 325 324 324 322 322 320 320 320 320 319 319 318 317 317 318 319 319 319 320 319 318 317 316 315 314 314 314 318
318 320 324 324 324 324 323 322 321 321 320 319 320 319 319 319 318 317 317 317 318 319 319 318 316 315 316 316 316 316 317 314
325 324 323 324 323 322 322 321 321 320 320 319 319 319 318 318 317 317 317 318 318 319 319 318 317 316 316 317 317 316 315 315
325 324 323 322 322 321 320 320 321 320 319 319 319 319 318 318 317 317 316 316 317 318 319 319 318 318 317 317 317 318 317 316
325 324 322 321 320 320 320 320 321 320 319 319 318 318 318 318 318 318 317 316 316 316 316 317 318 319 317 317 318 318 318 317
319 319 321 322 321 321 321 320 321 321 320 320 319 319 318 318 318 318 318 317 316 315 315 315 315 316 317 317 315 315 315 315
313 313 314 315 315 317 322 321 321 320 321 321 319 319 319 319 319 318 318 317 317 317 316 314 314 315 315 315 315 315 314 314
308 307 307 309 309 309 311 312 316 321 320 320 320 320 319 319 319 319 319 318 317 316 315 315 315 313 313 313 314 314 315 315
305 303 302 303 306 305 306 306 308 310 311 311 313 318 320 320 321 320 320 319 319 318 317 316 315 315 315 314 313 313 313 313
301 299 298 298 300 302 302 302 303 302 302 302 302 305 307 311 316 318 320 320 319 319 319 319 318 318 318 318 316 313 312 312

GFSFLT1_925_thetae_099.txt.gz
Theta_e
316 314 321 328 330 330 329 329 329 330 331 330 329 329 329 331 328 328 328 328 327 325 326 325 325 324 324 322 320 320 320 321
316 315 314 322 328 329 329 329 328 329 329 330 329 328 328 329 328 329 328 328 327 324 326 324 324 325 323 321 320 320 320 319
317 315 314 320 326 329 329 329 328 328 328 327 326 326 327 327 326 328 327 327 327 326 325 325 324 323 322 320 319 318 319 318
318 317 317 321 325 328 328 329 327 327 327 326 325 324 323 324 324 325 327 327 327 327 326 325 325 323 321 319 317 318 318 318
317 318 320 323 325 327 328 329 327 327 326 324 323 323 321 322 321 322 322 323 324 327 325 325 324 324 322 319 317 318 318 319
317 318 318 323 326 327 328 328 327 325 324 324 322 321 321 320 320 320 321 320 320 323 324 325 324 323 323 322 317 318 318 319
317 318 319 325 327 327 328 327 326 324 323 323 322 320 321 320 318 320 320 319 319 321 322 324 322 323 321 321 318 317 317 318
318 317 324 327 327 328 328 327 325 323 322 321 321 322 320 318 318 319 319 318 319 321 323 323 323 322 322 321 319 317 316 318
322 317 325 327 328 328 327 326 325 323 321 320 321 321 320 319 319 318 319 318 319 320 322 323 322 322 322 319 319 318 316 317
325 322 320 327 328 327 326 326 325 322 321 319 320 320 320 319 318 317 318 319 319 320 321 321 321 321 321 320 317 316 315 316
325 324 319 325 327 327 326 324 323 321 320 320 321 320 319 319 318 318 317 318 319 319 319 320 319 319 318 317 316 315 315 315
326 326 325 325 326 326 324 323 322 321 320 319 320 319 318 319 318 318 318 317 317 319 319 318 317 317 317 317 316 315 314 313
325 325 324 324 324 323 322 322 321 320 320 319 320 319 318 318 317 317 317 317 317 317 319 318 317 316 316 316 316 315 315 314
317 321 323 322 322 321 321 321 320 320 320 320 319 319 318 317 317 317 316 317 317 317 317 318 318 317 316 316 316 316 316 315
310 311 312 314 320 321 321 320 320 320 320 319 319 320 318 318 317 316 316 316 316 316 317 317 317 317 317 317 316 316 317 317
307 306 308 308 309 311 313 319 321 321 321 320 320 320 319 319 317 317 317 316 315 316 316 316 316 316 317 316 316 317 316 317
304 303 302 305 305 306 306 307 316 320 321 321 320 320 319 319 318 318 316 316 315 315 315 315 315 315 315 316 316 316 316 316
301 301 299 299 302 303 302 302 302 303 304 305 309 314 315 317 319 319 319 318 317 315 315 315 315 315 315 316 315 315 316 316
298 297 297 296 299 300 300 298 298 297 297 298 300 302 304 307 311 311 314 315 317 318 318 318 317 313 313 313 315 315 314 314

GFSFLT1_925_thetae_102.txt.gz
Theta_e
320 320 320 323 328 332 334 335 335 333 332 334 333 331 333 332 331 332 330 330 331 330 329 326 326 323 323 323 323 323 325 326
320 320 321 321 324 330 333 334 335 332 332 334 332 329 330 330 329 330 331 330 329 328 326 325 324 322 321 321 321 322 323 323
321 320 320 321 322 328 331 333 335 333 333 332 331 331 329 330 327 330 330 329 328 327 326 325 323 321 321 321 320 320 321 322
320 321 320 321 322 326 330 332 334 333 333 332 330 330 328 329 328 327 328 329 328 327 325 324 324 323 322 321 322 323 321 321
318 319 321 320 322 325 328 330 333 332 333 331 329 328 328 327 327 326 326 326 327 327 326 325 324 323 322 321 321 322 321 320
322 321 319 319 320 325 328 329 331 332 332 331 329 329 329 328 326 326 326 326 327 326 326 325 324 323 322 321 321 322 321 321
324 322 320 320 319 324 329 330 331 332 332 330 330 330 328 326 325 326 325 324 324 325 326 325 324 324 323 321 320 320 320 322
327 325 323 321 321 328 330 330 331 331 329 329 329 328 328 327 325 325 324 323 323 323 324 324 323 323 323 322 320 320 319 320
329 328 326 322 326 330 330 330 330 328 327 329 328 326 328 326 324 324 324 323 322 322 322 324 323 323 323 321 319 318 319 319
328 330 328 323 328 330 330 329 329 327 325 325 325 328 327 325 324 324 323 322 321 320 322 322 323 322 321 320 320 319 318 318
321 331 328 323 328 330 330 329 328 325 325 324 326 327 326 325 323 322 322 322 321 320 321 322 322 322 322 320 320 319 318 317
316 322 328 326 328 330 328 327 326 324 323 324 327 327 326 324 323 322 322 321 320 320 320 321 320 320 320 319 318 317 317 316
310 314 322 326 328 328 326 325 324 323 322 323 326 326 325 323 323 323 322 320 320 320 319 321 319 318 317 317 317 316 316 315
308 309 312 319 324 324 325 324 322 321 321 323 324 324 324 323 322 322 321 321 320 319 320 320 319 319 319 318 318 318 317 316
306 305 308 309 311 320 322 322 321 321 322 323 322 322 323 322 321 321 321 321 320 320 319 320 320 320 319 319 319 318 318 318
303 303 303 305 306 307 309 320 321 322 322 322 322 321 321 320 320 320 320 320 320 320 320 321 321 320 319 319 318 318 318 318
300 300 300 303 303 303 304 305 306 310 311 313 321 321 320 320 320 319 319 319 319 319 319 320 320 320 320 318 319 319 319 319
297 296 297 299 300 301 300 299 300 300 301 302 305 308 310 314 318 319 320 320 320 319 319 319 319 319 318 317 317 319 320 319
294 293 294 296 298 298 297 297 297 296 296 297 298 300 301 304 306 308 311 313 316 317 316 317 317 312 315 315 314 314 314 316

GFSFLT1_925_thetae_105.txt.gz
Theta_e
320 319 319 322 324 327 332 339 342 340 339 339 338 336 335 333 333 333 333 334 333 332 331 332 331 329 327 327 326 327 326 327
322 321 320 321 322 327 332 336 340 340 336 337 337 337 332 332 332 333 333 333 332 331 331 329 326 327 326 325 325 326 326 327
322 322 322 321 322 324 331 334 337 339 336 335 336 336 331 332 332 332 332 330 331 331 330 326 325 324 322 323 323 324 325 325
322 323 322 322 322 323 327 332 334 338 335 335 336 335 332 331 331 331 331 331 331 331 330 326 324 323 321 322 323 323 324 323
320 320 321 321 323 323 324 329 332 336 336 336 336 334 333 331 332 330 331 329 330 330 328 325 324 323 321 321 322 322 323 322
325 325 323 320 321 323 324 326 330 334 337 336 336 334 333 332 331 330 329 329 329 329 328 327 324 323 322 322 322 323 322 322
327 326 325 322 321 321 324 327 329 332 336 335 336 334 333 332 331 329 328 328 328 329 327 326 325 324 323 323 323 323 323 322
328 329 330 326 323 322 324 328 329 331 335 335 335 334 333 332 330 328 328 327 327 328 328 327 325 324 323 323 323 323 322 322
326 329 332 330 326 322 323 326 330 330 334 335 334 334 334 332 330 328 327 327 325 325 325 326 325 324 324 323 322 322 323 323
323 324 325 331 328 323 325 329 330 331 334 334 334 334 332 331 330 327 327 327 325 323 325 325 325 324 323 322 321 320 321 321
318 317 318 322 327 326 330 332 331 333 330 330 333 332 333 331 329 327 327 325 323 324 323 324 325 324 323 322 321 319 319 320
313 310 309 315 322 330 332 332 332 329 327 328 330 331 331 330 327 326 325 323 323 323 323 323 322 322 323 323 321 321 320 319
310 306 304 308 311 331 329 329 328 327 325 325 328 331 330 329 326 325 325 322 323 323 323 322 322 320 321 322 321 320 319 318
308 303 301 304 307 315 327 326 325 324 324 325 328 330 329 328 326 324 322 322 322 322 322 322 321 321 319 320 319 318 318 318
308 302 299 300 303 306 317 324 323 322 323 325 326 327 327 327 325 323 322 322 321 321 321 322 320 320 320 320 320 320 319 319
304 302 299 296 301 302 304 308 321 322 323 324 324 325 325 325 324 322 322 321 320 320 321 321 320 320 320 320 320 319 319 319
298 299 297 295 299 298 300 300 302 308 309 310 322 323 322 321 321 321 321 321 320 321 321 321 322 322 321 321 321 321 320 320
296 294 294 294 296 297 297 297 297 298 299 301 305 310 314 317 320 320 320 320 320 321 320 320 320 315 318 320 319 319 321 321
294 292 292 293 294 295 295 295 295 295 295 296 298 300 302 303 306 307 310 314 316 315 314 315 310 307 312 317 317 317 317 316

GFSFLT1_925_thetae_108.txt.gz
Theta_e
322 322 320 319 321 323 342 344 344 343 343 342 341 339 336 336 335 334 334 334 335 335 334 333 331 331 330 330 329 328 328 327
321 321 321 320 320 321 336 345 345 343 342 342 341 340 338 335 335 333 332 332 333 334 332 331 331 330 329 328 327 327 328 327
322 323 323 320 320 322 329 343 345 343 342 341 340 340 337 335 333 333 333 332 334 333 332 331 329 328 326 325 325 326 326 327
322 323 323 325 323 324 325 332 344 342 341 339 338 339 334 332 333 331 332 333 332 331 331 330 328 325 324 324 325 325 325 326
322 322 322 323 325 325 325 327 335 341 340 337 337 336 334 333 333 331 332 330 331 331 330 329 325 324 322 323 323 325 325 324
326 326 325 324 323 323 326 325 331 338 340 336 336 338 335 332 333 331 331 331 329 330 329 328 325 323 322 322 323 324 324 323
327 327 328 328 325 324 323 327 329 333 340 337 337 338 336 334 333 331 330 330 329 329 329 327 325 324 322 322 322 323 323 323
325 325 326 328 330 330 323 324 327 330 339 338 337 338 336 334 333 332 329 329 329 329 328 328 326 324 322 322 322 323 323 323
321 321 321 322 324 326 324 324 325 329 335 339 337 339 336 335 333 331 328 328 328 328 329 327 325 325 324 323 323 323 323 323
317 315 315 313 317 319 322 324 325 328 332 338 336 338 335 336 333 330 330 328 327 326 327 329 326 325 324 323 322 322 323 323
314 311 308 307 312 314 317 327 324 329 333 336 337 336 335 335 332 331 329 328 326 325 324 325 327 325 324 324 323 322 323 323
311 307 304 303 306 308 312 332 331 333 336 336 336 335 335 333 331 329 329 326 325 324 324 325 326 325 324 323 323 322 321 322
308 304 301 300 303 304 307 321 330 331 331 331 332 333 332 332 330 328 326 324 323 323 323 323 324 324 324 323 322 321 321 320
305 304 301 299 300 301 302 307 326 327 327 328 330 331 332 330 328 327 325 323 322 323 323 323 322 322 322 322 322 321 321 320
301 301 301 298 298 299 299 300 306 324 325 326 328 329 330 329 327 326 324 322 322 322 322 322 322 321 320 320 320 321 320 319
298 298 298 298 297 296 297 297 300 305 314 322 326 328 328 327 326 324 323 322 322 322 322 322 320 320 321 321 320 319 319 319
296 295 295 295 296 295 296 296 296 298 300 301 307 321 324 325 323 323 322 321 321 321 321 321 320 319 320 320 320 319 319 319
295 294 293 293 295 295 294 294 295 295 296 297 299 302 308 318 321 321 321 321 321 321 321 320 314 313 318 320 321 320 320 320
293 292 291 291 292 294 294 293 293 293 294 294 295 297 297 299 305 310 312 315 311 308 306 308 310 310 316 318 319 319 317 316

GFSFLT1_925_thetae_111.txt.gz
Theta_e
317 319 320 320 319 319 339 342 344 344 344 342 341 340 340 338 335 334 334 333 335 335 334 334 333 332 331 331 330 330 329 328
318 319 320 320 320 318 340 342 344 343 343 342 341 340 339 337 336 333 331 333 334 334 334 333 332 332 332 329 330 330 329 327
319 320 320 320 320 320 338 342 343 343 342 341 340 340 338 337 336 334 332 332 332 334 334 333 332 331 330 328 328 327 327 326
317 317 318 320 321 319 335 343 343 342 341 341 340 340 339 335 334 334 333 332 332 332 333 332 330 329 329 328 326 325 325 326
320 321 321 322 322 323 333 343 343 342 341 341 340 338 336 335 334 333 333 333 332 334 333 332 330 329 327 324 324 323 325 326
323 322 323 323 324 325 327 328 342 341 341 340 339 337 336 334 334 333 331 331 332 332 331 331 329 328 325 323 322 323 325 325
319 317 317 317 316 317 320 324 327 340 340 339 337 336 335 333 332 332 331 331 330 332 331 330 328 326 324 322 321 323 324 325
314 313 312 311 310 313 315 318 321 325 339 337 336 335 336 333 332 331 330 331 330 331 330 328 327 325 324 322 322 323 323 324
311 310 307 306 306 308 310 311 315 322 336 337 336 334 335 334 332 331 330 329 330 329 329 328 327 326 323 321 321 323 323 323
308 306 304 303 303 305 306 309 313 324 327 337 335 335 336 334 333 332 331 330 329 328 329 329 327 325 324 322 321 322 323 323
305 303 302 301 302 303 304 308 313 330 327 337 336 336 337 335 334 332 331 330 328 328 328 328 327 326 324 322 323 322 323 323
303 302 300 299 300 301 302 304 309 326 331 336 336 336 336 334 334 332 330 329 327 326 327 328 328 325 325 323 323 322 322 322
300 300 299 299 299 299 299 301 304 311 328 332 335 335 334 333 333 331 330 328 327 326 325 325 326 326 325 324 323 322 322 322
299 298 297 298 298 298 298 298 300 305 322 328 330 332 333 332 331 329 328 326 325 324 324 324 323 325 325 324 323 322 321 321
297 296 296 296 297 297 296 297 297 300 306 316 322 328 330 330 329 326 325 324 323 323 322 322 321 323 323 323 323 322 322 321
296 295 295 295 296 296 296 295 296 297 299 302 304 316 327 328 327 326 324 323 322 322 322 322 322 322 322 322 321 321 321 321
295 294 293 293 294 295 295 295 294 295 296 297 298 302 308 319 324 323 322 322 322 322 322 322 321 320 320 320 320 320 320 319
293 292 292 292 292 293 293 293 294 293 294 295 296 297 297 296 306 319 321 321 322 321 321 320 317 316 319 320 320 320 319 319
293 291 291 291 291 291 292 292 292 292 292 293 293 294 294 294 294 294 300 304 307 311 308 308 308 308 314 318 320 318 317 314

GFSFLT1_925_thetae_114.txt.gz
Theta_e
315 316 318 318 319 317 336 343 343 344 343 342 342 342 341 341 341 340 338 335 335 336 336 335 334 334 333 333 331 331 329 328
315 317 317 318 319 317 327 340 342 343 343 341 340 341 340 338 338 337 335 335 333 334 336 334 334 332 332 332 332 330 329 328
312 314 316 316 316 315 325 337 341 342 342 341 340 339 338 337 337 336 334 334 334 333 335 333 334 333 331 332 331 329 329 328
320 321 321 322 323 323 334 338 341 342 342 341 340 338 337 337 337 336 335 334 332 333 334 334 333 333 331 332 330 329 328 327
320 319 316 315 316 319 325 338 341 342 342 340 338 337 336 337 335 335 335 332 331 333 333 334 333 332 330 330 329 328 327 325
314 312 311 309 310 312 316 321 331 341 340 340 338 338 337 336 334 334 334 333 332 332 332 333 333 332 329 328 328 326 325 324
308 307 306 306 306 307 311 315 319 323 337 339 338 338 337 334 333 332 332 333 332 331 331 333 333 331 329 328 326 324 323 323
305 303 303 303 303 304 307 308 313 318 321 334 338 338 336 335 333 332 331 330 331 332 332 332 332 330 328 326 323 321 322 322
303 302 301 300 302 302 304 306 308 312 320 323 335 336 335 334 333 332 332 331 331 330 331 331 330 329 325 325 320 320 322 322
301 300 299 299 300 301 302 303 305 309 315 326 327 335 334 333 333 333 332 332 331 330 330 330 330 327 325 324 321 319 320 323
300 299 299 299 299 299 300 301 302 306 312 324 327 334 333 333 332 332 332 331 330 330 329 329 329 327 325 324 321 320 322 322
299 299 298 298 298 298 299 299 300 302 307 321 331 334 333 333 333 333 332 331 330 329 329 328 326 326 324 323 322 320 321 322
298 297 297 297 297 298 298 298 298 300 303 312 325 332 333 332 332 332 331 330 330 330 328 327 326 327 325 323 322 321 322 322
296 296 296 296 296 296 297 297 297 298 300 304 311 320 329 330 331 331 329 329 328 328 327 327 326 326 324 323 323 322 322 322
295 295 294 294 295 295 295 296 295 296 298 299 301 305 317 326 328 329 328 328 327 327 325 326 326 324 323 324 323 322 322 322
294 294 293 293 293 293 294 294 295 295 295 296 297 300 305 321 324 325 326 326 326 325 324 323 323 322 323 324 323 322 322 321
293 292 292 292 292 292 292 293 292 293 294 294 295 297 298 301 311 321 323 324 323 323 322 322 322 321 322 322 322 322 322 321
292 291 291 291 291 291 291 291 291 291 292 292 293 294 295 296 296 300 306 312 319 320 320 320 318 318 320 320 320 320 320 320
291 290 289 289 290 291 290 289 289 289 289 291 291 292 292 293 294 294 292 293 295 296 301 304 304 306 313 319 320 319 319 317

GFSFLT1_925_thetae_117.txt.gz
Theta_e
313 316 314 316 323 337 341 344 344 344 342 340 340 340 338 338 336 338 338 337 337 338 337 336 335 335 335 334 332 329 328 328
314 315 316 313 312 323 339 341 343 343 342 340 340 340 340 339 340 340 339 339 339 337 336 336 335 334 334 333 332 330 329 328
316 320 319 319 320 314 318 338 340 342 342 341 340 340 338 339 341 341 340 340 338 335 335 335 335 334 332 332 332 329 328 328
319 314 311 311 313 317 324 334 337 340 342 340 340 339 338 336 337 340 340 338 337 335 333 334 335 334 331 330 330 330 329 328
312 309 308 307 308 312 317 329 337 339 341 340 338 338 337 337 337 337 337 337 334 334 333 333 334 333 332 330 330 329 329 328
306 305 305 304 304 307 312 317 326 335 340 341 338 337 336 335 335 335 336 336 334 334 333 332 334 333 332 331 331 328 329 327
302 302 302 302 302 304 308 312 316 321 327 336 338 337 336 335 334 333 333 333 334 333 333 331 333 333 332 331 330 327 328 327
300 300 300 300 300 301 303 307 310 314 317 322 329 336 337 337 334 332 331 332 332 332 331 331 332 332 332 332 330 327 327 325
299 299 299 299 299 300 301 303 305 309 311 313 319 326 336 336 331 332 332 332 332 331 330 330 331 331 331 331 329 327 324 323
299 299 299 299 299 299 300 301 302 304 307 311 315 321 327 335 334 333 332 332 331 332 330 329 329 331 331 330 327 324 323 321
299 298 298 298 298 298 298 299 300 300 303 307 313 320 325 333 333 333 333 332 331 331 330 329 327 329 329 329 324 324 323 320
297 297 297 297 297 296 297 297 298 298 300 303 308 316 328 332 332 332 332 331 331 330 330 328 326 327 328 327 323 324 322 320
296 296 295 295 295 296 295 295 296 297 298 300 302 307 319 331 332 331 330 329 330 330 329 327 326 325 326 325 323 323 322 320
295 294 294 294 294 294 295 294 294 295 296 297 299 301 306 317 326 330 330 329 328 328 327 327 326 325 325 325 324 323 322 321
294 293 293 293 293 293 293 293 293 294 295 295 296 298 299 304 315 326 328 328 327 327 326 326 326 325 324 324 323 323 322 322
293 292 292 292 292 292 292 291 291 291 293 293 294 295 297 298 306 315 321 325 327 327 325 325 325 325 325 324 324 323 322 322
291 291 290 291 291 291 290 290 290 290 290 290 292 293 294 295 297 300 304 311 319 324 324 324 324 324 323 323 322 323 322 322
289 289 289 289 289 290 289 289 288 289 289 289 289 291 292 292 293 295 296 295 296 303 307 315 313 314 320 322 323 323 322 321
287 286 287 286 287 288 289 287 287 286 286 287 288 288 289 291 291 291 292 293 293 292 293 295 299 303 312 319 321 321 321 320

GFSFLT1_925_thetae_120.txt.gz
Theta_e
313 313 313 319 334 339 341 342 341 339 335 335 333 333 332 332 331 331 331 332 333 333 333 334 335 335 334 333 332 330 329 328
313 314 314 311 311 324 339 342 342 341 339 337 336 336 335 334 333 332 331 332 332 333 334 335 335 335 333 334 333 331 329 330
315 312 312 313 315 316 313 334 342 342 341 339 339 338 337 336 336 336 335 334 336 335 336 336 336 335 334 334 332 330 329 329
311 309 307 308 310 312 314 318 334 341 341 340 340 339 338 337 337 337 337 337 338 337 337 337 335 334 333 333 330 330 328 328
304 304 305 303 304 310 313 318 328 336 341 340 339 338 337 337 336 336 338 340 339 339 338 337 334 334 333 332 329 328 329 326
300 300 301 301 302 305 309 312 319 329 338 340 340 338 338 337 337 336 337 334 336 339 338 337 334 333 333 332 330 328 327 328
301 300 300 300 300 301 305 307 310 316 327 332 335 337 337 336 335 335 334 335 334 336 336 335 334 333 331 333 330 329 328 328
300 300 300 300 300 300 302 303 305 311 316 319 324 329 332 336 335 334 333 332 333 333 332 333 333 332 331 331 329 328 327 327
300 299 299 298 299 299 299 300 302 303 309 315 317 319 323 328 334 333 333 333 333 330 330 332 331 331 330 330 330 330 329 327
298 298 298 297 297 297 298 298 299 300 302 305 310 315 318 321 328 333 332 332 329 325 327 330 331 330 329 329 329 328 328 327
297 297 297 296 296 296 296 296 297 298 299 301 304 306 311 318 324 330 332 333 328 326 329 330 329 330 327 328 329 327 327 326
296 296 295 295 295 295 295 295 295 296 297 298 301 303 306 315 323 327 330 331 332 331 330 330 328 326 327 327 327 326 327 324
294 294 294 294 294 294 294 293 293 294 295 296 297 299 301 305 314 322 329 329 330 329 328 328 326 327 326 326 325 325 325 322
293 293 293 293 293 292 292 292 292 292 293 294 295 296 297 299 303 313 323 328 327 327 328 327 326 326 325 324 324 324 324 322
292 291 291 291 291 291 291 291 291 291 292 292 293 294 294 296 298 304 311 320 325 326 325 326 325 325 325 323 323 324 323 323
291 290 290 290 290 290 289 289 289 289 291 291 291 292 293 293 295 297 301 308 312 319 323 325 325 325 324 323 323 322 322 321
288 288 288 288 289 290 288 287 287 287 288 288 290 291 291 291 292 293 294 297 302 304 311 310 317 319 323 323 324 322 322 322
286 286 285 286 286 288 288 286 286 286 286 286 287 288 290 290 290 290 291 292 293 297 298 297 297 299 306 321 322 323 322 322
284 284 283 284 285 286 287 285 284 284 284 284 285 286 287 288 289 290 289 290 290 290 291 293 294 293 300 307 316 321 321 320

GFSFLT1_925_thetae_123.txt.gz
Theta_e
311 312 312 312 319 333 340 340 337 334 335 335 335 334 334 333 331 331 332 335 337 339 335 334 334 336 335 334 332 331 330 329
312 316 315 312 314 330 339 342 340 337 335 335 335 334 333 333 333 333 332 332 335 335 334 333 334 334 334 333 332 330 329 330
314 312 310 310 311 313 323 335 342 340 338 336 336 335 335 334 333 333 333 332 331 332 332 332 333 334 334 332 331 329 329 329
307 307 307 307 307 309 313 317 336 341 341 340 338 338 337 335 334 334 333 333 332 331 332 332 332 333 334 333 332 331 330 328
304 304 304 304 304 306 310 316 320 331 339 340 338 339 338 337 336 335 334 335 334 333 332 333 333 334 333 334 332 332 331 329
303 303 302 302 302 304 308 313 315 323 331 338 339 338 339 339 337 335 335 337 335 334 334 334 334 334 334 332 332 331 330 329
301 300 300 300 301 303 305 308 309 312 322 329 334 338 338 336 338 337 336 336 335 335 335 334 334 334 332 331 333 331 330 328
301 300 299 299 299 300 301 303 304 306 310 315 319 324 327 330 337 336 335 334 333 334 334 334 335 334 334 331 331 331 330 329
299 299 298 298 298 298 299 300 301 302 305 307 313 316 316 319 323 329 335 334 333 333 332 333 333 334 333 331 330 330 330 329
298 297 297 297 297 297 296 298 299 300 301 303 305 307 311 314 316 321 327 333 333 333 332 332 332 331 329 331 330 329 329 328
295 296 295 295 295 295 295 295 296 296 298 299 300 302 307 311 313 318 323 328 331 331 331 331 331 330 328 330 328 328 327 327
293 293 293 293 293 294 294 294 294 294 295 296 298 298 299 302 305 311 317 325 330 330 330 329 330 328 329 328 326 327 327 326
292 291 291 292 292 292 292 292 293 293 293 294 295 296 296 298 300 304 311 320 328 328 329 328 329 328 328 327 325 326 325 325
291 290 290 291 291 290 290 291 291 293 293 293 293 293 294 294 296 298 303 311 319 325 327 328 328 328 327 326 325 326 325 325
289 289 289 289 290 288 289 289 289 291 291 291 291 292 293 293 293 294 296 298 304 312 318 324 325 326 326 325 324 324 324 323
288 288 287 287 288 289 287 287 287 289 289 290 289 290 291 292 292 292 293 294 295 297 303 308 312 312 308 314 322 323 323 322
286 286 285 286 287 288 286 286 286 287 287 288 288 289 289 290 290 291 291 291 291 292 292 294 295 296 301 308 312 321 323 321
285 285 284 284 285 286 287 284 284 285 285 285 286 287 287 288 288 289 290 289 289 288 288 289 289 290 296 304 312 316 321 321
284 282 282 282 283 285 286 285 284 283 283 283 284 285 285 286 287 287 288 288 288 287 287 287 287 288 292 297 302 308 310 309

GFSFLT1_925_thetae_126.txt.gz
Theta_e
308 307 307 312 316 316 316 327 339 339 338 338 337 337 336 336 335 335 336 338 339 337 337 337 337 338 335 338 334 334 336 335
308 307 310 316 316 319 317 323 337 340 339 337 337 337 336 336 335 336 336 336 336 338 336 335 337 338 337 336 335 333 334 335
311 312 313 314 315 316 318 325 331 340 340 337 335 335 335 336 336 336 336 336 336 336 336 336 337 336 336 335 334 332 332 333
309 310 311 311 312 313 315 322 335 339 341 339 337 336 337 337 337 336 336 336 337 335 336 338 336 335 335 333 332 333 332 332
304 306 307 307 307 308 313 320 325 336 341 341 341 340 341 340 339 339 338 336 336 337 336 337 336 335 335 334 333 333 333 331
302 302 303 303 303 305 308 314 320 324 334 338 340 341 341 341 340 340 337 336 337 337 337 337 336 334 335 333 332 333 334 335
299 300 300 301 301 302 304 307 309 314 320 327 337 338 341 340 340 340 338 336 336 336 338 337 335 334 334 334 334 334 334 334
297 298 299 299 300 300 302 303 305 307 312 313 317 321 325 329 333 336 338 336 336 335 336 335 334 334 334 334 334 333 333 334
294 296 296 297 298 298 299 300 301 303 306 308 309 312 314 317 320 323 330 333 336 335 334 334 334 334 334 335 335 334 334 334
294 293 293 294 296 296 297 299 298 300 302 305 306 306 310 313 314 317 319 323 329 333 333 333 333 333 334 335 334 333 333 334
292 292 292 292 293 295 295 297 298 298 298 301 302 303 304 305 307 307 309 316 321 326 332 332 331 332 333 333 332 333 332 332
291 291 290 291 290 292 293 294 296 296 296 297 298 299 300 300 301 301 303 309 318 323 329 331 331 331 332 331 332 331 331 330
291 290 289 290 289 290 291 292 294 295 295 295 295 295 296 296 296 298 301 303 307 316 324 329 329 330 332 331 329 329 328 328
290 289 289 289 289 289 289 290 292 293 293 293 293 293 294 294 294 294 295 297 299 303 310 315 318 326 328 328 327 327 327 327
290 290 289 288 289 288 288 289 290 292 293 293 293 292 292 293 293 293 293 293 293 295 296 298 299 303 306 312 318 325 326 326
289 288 288 287 288 289 288 288 289 290 290 292 293 293 292 291 292 292 293 292 291 291 292 293 294 293 294 299 308 316 322 325
287 287 286 286 287 288 288 288 288 289 289 289 291 292 293 292 291 292 291 292 290 291 290 289 289 290 293 296 304 310 313 320
286 285 284 285 286 287 287 288 287 287 287 287 288 290 291 292 292 292 291 290 290 289 289 289 288 287 291 294 294 298 300 303
285 284 283 284 285 286 286 286 286 285 285 285 286 287 288 289 289 290 290 290 289 288 288 287 287 286 286 291 291 292 293 293